Miscellaneous Local Product
Issued by NWS Hastings, NE

Home | Current Version | Previous Version | Graphics & Text | Print | Product List | Glossary On
Versions: 1 2 3 4 5 6 7 8 9 10 11 12 13 14 15 16 17 18 19 20 21 22 23 24 25 26 27 28 29 30 31 32 33 34 35 36 37 38 39 40 41 42 43 44 45 46 47 48 49 50
112
AXUS43 KGID 212202
MISGRI

GID CWA HOURLY WEATHER ROUNDUP
NATIONAL WEATHER SERVICE HASTINGS NE
400 PM CST SUN JAN 21 2018

NOTE: "FAIR" INDICATES FEW OR NO CLOUDS BELOW 12,000 FEET WITH NO
SIGNIFICANT WEATHER AND/OR OBSTRUCTIONS TO VISIBILITY.

...SOUTH CENTRAL NEBRASKA...

CITY           SKY/WX    TMP DP  RH WIND       PRES   REMARKS
GRAND ISLAND   LGT RAIN  34  34 100 NE24G31   29.68F FOG     WCI  21
KEARNEY        MIX PCPN  33  32  96 N18       29.70R FOG     WCI  22
HASTINGS       CLOUDY    33  32  96 NE22G32   29.66S FOG     WCI  21
ORD            LGT SNOW  35  31  85 N20G31    29.74S FOG     WCI  24
YORK           CLOUDY    36  36 100 NE20      29.68R FOG     WCI  25
AURORA         CLOUDY    34  34 100 NE21G28   29.68R FOG     WCI  22
LEXINGTON      LGT SNOW  34  32  91 NE17      29.69R WCI  23
HOLDREGE       LGT RAIN  33  33 100 NE22G32   29.68R WCI  20
HEBRON         FOG       41  40  97 NE12      29.65R VSB 1/4

...NEBRASKA PANHANDLE...

CITY           SKY/WX    TMP DP  RH WIND       PRES   REMARKS
CHADRON        LGT SNOW  29  26  89 NW8       29.97R VSB 1   WCI  21
ALLIANCE       FOG       27  26  96 N22       29.87R VSB 1   WCI  13
SCOTTSBLUFF    MIX PCPN  29  24  82 N21G30    29.93R WCI  16
SIDNEY         LGT SNOW  27  25  92 N22       29.84R VSB 1   WCI  13

...WESTERN AND NORTH CENTRAL NEBRASKA...

CITY           SKY/WX    TMP DP  RH WIND       PRES   REMARKS
VALENTINE      LGT SNOW  32  29  88 N15G24    29.88S FOG     WCI  22
AINSWORTH      CLOUDY    32  31  95 N17G25    29.87R WCI  21
ONEILL         CLOUDY    35  32  87 N23G29    29.83R WCI  24
BROKEN BOW     LGT SNOW  34  31  88 N22G33    29.72S FOG     WCI  22
IMPERIAL       LGT SNOW  31  30  96 N23G35    29.73R VSB 1   WCI  18
NORTH PLATTE   SNOW      33  30  88 N16G28    29.74R VSB 1/2 WCI  23
MCCOOK         SNOW      32  31  96 NE18      29.68R VSB 1/2 WCI  20

...EASTERN NEBRASKA...

CITY           SKY/WX    TMP DP  RH WIND       PRES   REMARKS
NORFOLK        CLOUDY    50  27  40 NE22G28   29.75R
SO SIOUX CITY  CLOUDY    40  30  67 NE12G22   29.79S WCI  33
TEKAMAH        CLOUDY    37  35  92 N17       29.74S FOG     WCI  27
COLUMBUS       MIX PCPN  36  34  92 N18       29.71F FOG     WCI  26
ALBION         CLOUDY    39  30  70 N22G30    29.75R WCI  28
OMAHA EPPLEY   DRZL/FOG  40  39  97 N8        29.71F VSB 1   WCI  34
OFFUTT AFB     CLOUDY    40  40  99 NE7       29.70R FOG
MILLARD        CLOUDY    41  40  95 NE6       29.71R FOG
LINCOLN        FOG       38  37  97 NE12      29.69S VSB 1/2 WCI  30
NEBRASKA CITY  FOG       43  43 100 N7        29.67S VSB<1/4
BEATRICE       LGT RAIN  43  43 100 NE13      29.64S VSB 1/4
FALLS CITY     CLOUDY    56  46  69 SE6       29.64F

...NORTHERN KANSAS...

CITY           SKY/WX    TMP DP  RH WIND       PRES   REMARKS
GOODLAND       LGT SNOW  30  29  96 N15G28    29.67R VSB 3/4 WCI  19
HILL CITY      LGT RAIN  36  36 100 N12       29.65R FOG     WCI  28
NORTON         MIX PCPN  34  28  80 N17G23    29.64  WCI  23
PHILLIPSBURG   CLOUDY    36  36 100 N16       29.65S FOG     WCI  26
SMITH CENTER   FOG       36  36 100 N13       29.63S VSB 1   WCI  27
BELOIT         CLOUDY    45  43  93 CALM      29.60S
HAYS           FOG       40  39  97 W6        29.64R VSB 3/4
RUSSELL        CLOUDY    43  43 100 S7        29.60R FOG
CONCORDIA      MOSUNNY   49  39  68 S9        29.59F
SALINA         SUNNY     53  37  54 SW14      29.59F
TOPEKA         MOSUNNY   64  51  62 S13       29.61F



USA.gov is the U.S. government's official web portal to all federal, state and local government web resources and services.